Location: Gleizolles
(44.4833°N, 6.7667°E)
Time: 11:45:18
(UTC+00:00)

Cosmos 2058 Rocket - Pass Details

Date: 09 April 2020
Orbit: 610 x 640 km, 82.5° (Epoch: 04 June)

Event Time Altitude Azimuth Distance (km) Brightness Sun altitude
Rises 18:52:06 0° 168° (SSE) 2,929 6.2 -7.9°
Reaches altitude 10° 18:54:26 10° 160° (SSE) 2,026 5.3 -8.3°
Maximum altitude 18:58:38 39° 92° (E) 955 3.6 -9.0°
Drops below altitude 10° 19:02:50 10° 23° (NNE) 2,036 5.7 -9.7°
Sets 19:05:11 0° 16° (NNE) 2,946 6.6 -10.1°
